Temperature
13 13 13 14 14 13 13 14 14 14 15 14 14 14 14 14 14 14 14 14 14 15 15 15 15 15 15 15 15 15 15 16 16 16 16 16 16 16
14 14 13 13 13 13 13 13 13 14 14 14 13 13 14 14 14 14 14 14 15 15 15 15 15 15 15 15 15 15 15 15 15 16 16 16 15 15
13 13 13 13 13 13 13 13 13 13 13 13 13 13 13 13 14 14 14 14 14 14 14 15 15 15 15 15 15 15 15 15 15 15 15 15 15 15
13 13 13 13 13 13 13 13 13 13 13 13 13 13 13 13 13 13 13 13 14 14 14 14 14 14 14 15 15 15 15 15 15 15 15 15 15 15
13 13 13 13 13 13 13 13 13 13 13 13 13 13 13 13 13 13 13 13 13 13 14 14 14 14 14 14 14 14 15 14 14 15 15 15 15 15
13 13 13 13 13 13 13 13 12 12 12 12 13 13 12 13 13 13 13 13 13 13 13 13 14 14 14 14 14 14 14 14 14 14 14 14 14 14
12 12 13 13 13 13 12 12 12 12 12 12 12 12 12 12 12 12 12 12 13 13 13 13 13 13 13 14 14 14 14 14 14 14 14 14 14 14
12 12 12 12 12 12 12 12 12 12 12 12 12 12 12 12 12 12 12 12 12 12 12 12 13 13 13 13 13 14 14 14 14 14 14 13 13 13
12 12 12 12 12 12 12 12 12 12 12 11 11 12 11 11 11 11 11 11 12 12 12 12 12 12 12 13 13 13 13 13 13 13 13 13 13 13
11 11 11 11 11 11 11 11 11 11 11 11 11 11 11 11 11 11 11 11 11 11 11 11 12 12 12 12 13 13 13 13 13 13 13 13 13 13
11 11 11 11 11 11 11 10 11 11 11 11 11 11 11 11 11 11 10 10 11 11 11 11 11 12 12 12 12 12 13 13 13 12 12 12 12 12
10 10 10 10 10 10 10 10 10 10 10 10 10 10 10 10 10 10 10 10 10 11 11 11 11 11 11 12 12 12 12 12 12 12 12 12 12 12
10 10 10 10 10 10 10 9 10 10 10 10 10 10 10 10 10 10 10 10 10 10 10 10 10 10 11 11 11 11 11 11 11 12 12 12 12 11
9 9 9 10 10 10 9 9 9 9 9 9 9 9 10 10 9 9 9 9 9 10 10 9 10 10 10 10 10 11 11 11 11 11 11 11 11 11
9 9 9 9 9 9 9 9 9 9 9 9 9 9 9 9 9 9 9 9 9 9 9 9 9 9 9 9 10 10 10 10 10 10 10 10 10 11
8 8 8 8 8 8 8 8 8 8 8 8 8 8 8 8 8 8 8 8 8 9 9 9 9 9 9 9 9 9 9 10 10 10 10 10 10 10
8 8 8 8 8 8 8 8 7 7 7 7 7 7 7 7 7 7 7 7 7 8 8 9 9 9 8 8 9 9 9 9 9 9 9 9 9 9
7 7 7 7 7 7 7 7 7 7 7 7 6 6 6 6 7 7 7 7 7 7 7 8 8 8 8 8 8 8 9 9 9 9 9 9 9 9
7 7 7 7 7 7 6 6 6 6 6 6 6 6 6 6 6 6 6 6 6 7 7 7 7 7 7 7 8 8 8 8 8 8 8 8 8 8
6 6 6 6 6 6 6 6 5 5 5 5 5 5 5 5 5 5 6 6 6 6 6 6 7 7 7 7 7 7 7 7 7 7 7 7 8 8
6 6 5 5 5 5 5 5 5 5 5 5 5 5 5 5 5 5 5 5 5 5 6 6 6 6 6 6 6 6 7 7 7 7 7 7 7 7
5 5 5 5 5 5 4 4 4 4 4 4 4 4 4 4 4 4 4 4 5 5 5 5 5 5 5 5 5 6 6 6 6 6 6 6 6 6
5 4 4 4 4 4 4 4 4 4 4 4 4 4 4 4 3 4 4 4 4 4 4 4 4 5 5 5 5 5 5 5 5 5 6 6 6 6
Wind_Speed
3 3 2 2 3 3 3 3 3 3 3 2 2 3 4 3 2 3 2 2 1 3 4 4 4 4 5 5 5 5 6 5 5 7 8 11 12 12
3 3 3 2 3 3 3 3 3 3 3 3 3 4 4 4 2 4 3 1 3 3 4 4 5 5 5 5 5 5 6 6 6 7 8 10 11 12
3 3 3 3 3 2 3 3 3 3 4 4 4 4 5 5 3 4 4 4 3 2 3 5 5 6 6 6 6 6 7 7 7 8 8 9 11 11
4 3 3 3 3 3 3 4 3 3 4 5 5 4 5 5 5 4 4 4 4 2 3 5 6 6 7 7 7 7 7 8 8 8 8 9 11 12
4 4 4 4 4 4 4 4 4 4 4 5 5 5 5 5 5 5 5 4 5 4 4 5 6 7 8 8 8 8 8 8 8 8 9 9 11 12
4 5 5 5 5 5 5 5 5 5 5 5 5 5 5 5 5 5 5 4 5 5 4 4 5 7 8 8 9 8 8 9 9 9 9 9 10 11
5 5 5 5 6 6 5 6 6 5 5 5 5 6 5 5 5 5 6 6 6 5 5 5 5 5 6 8 9 9 9 9 9 9 9 9 9 10
5 5 5 4 4 4 5 6 7 7 7 7 6 7 7 7 5 6 6 6 6 4 5 6 6 6 6 6 6 8 10 10 11 11 11 11 10 10
6 6 5 5 5 6 5 6 7 7 8 9 10 9 9 8 8 8 7 8 8 6 6 7 7 7 6 6 7 9 10 11 12 12 12 12 11 11
6 6 6 7 7 8 8 8 8 7 7 8 9 10 9 9 9 9 9 9 9 8 7 8 8 8 7 7 8 10 11 12 12 12 12 12 12 12
6 6 6 7 8 10 9 9 9 8 6 7 9 10 11 11 10 8 8 8 9 8 7 7 8 8 8 8 8 11 13 14 13 14 14 13 13 13
6 6 4 6 9 10 9 9 10 10 10 9 9 10 10 10 11 11 10 10 9 8 7 7 8 7 7 7 7 7 9 11 14 14 15 14 13 10
6 6 5 6 8 11 11 10 10 11 11 11 10 9 8 8 8 9 9 9 10 10 8 7 8 9 9 7 7 7 7 7 8 9 13 15 15 12
7 7 7 8 11 12 10 9 11 12 9 9 8 8 8 8 8 8 9 10 11 12 11 10 9 9 10 10 8 7 7 7 7 7 8 10 13 14
8 8 10 11 12 11 8 10 10 9 8 9 9 9 8 9 9 8 10 10 11 12 13 13 11 10 10 11 10 8 7 7 7 8 7 7 7 7
8 8 10 11 10 10 9 8 8 8 8 9 9 9 8 8 8 8 9 8 9 10 11 13 12 11 11 11 11 10 9 7 7 8 7 7 7 8
10 9 9 8 8 8 8 8 8 8 8 8 9 9 9 9 9 8 8 9 9 10 9 7 8 9 10 10 11 11 9 8 8 7 8 8 8 8
10 9 9 9 9 9 9 9 9 8 9 9 9 9 9 10 10 9 9 9 11 10 10 7 6 7 8 8 9 11 9 8 7 8 8 8 8 8
9 9 9 9 9 9 9 10 10 10 9 10 10 10 10 10 10 10 10 10 11 10 10 8 7 8 10 11 8 9 10 9 8 8 8 8 8 8
8 9 10 10 10 10 10 10 10 10 10 10 11 10 10 11 11 11 11 12 11 10 10 9 9 9 10 10 9 8 8 9 9 9 8 6 6 5
9 9 10 10 10 10 10 10 11 11 11 11 11 11 10 11 11 12 12 13 12 11 11 10 9 8 7 6 8 8 7 8 9 8 8 7 7 7
10 10 10 11 10 11 11 11 11 11 12 11 11 11 11 11 12 13 12 11 11 11 12 10 7 7 7 9 10 10 8 6 6 8 9 9 8 8
11 11 11 11 10 10 11 12 13 12 11 11 11 11 11 11 11 11 12 12 11 11 11 10 8 7 8 8 9 9 9 8 6 5 6 6 7 6
Wind_Direction
360 358 353 355 345 343 327 313 308 311 326 342 339 348 339 340 339 313 313 72 325 296 289 286 280 270 264 253 240 232 238 244 240 233 228 217 210 207
349 346 344 343 350 339 324 315 312 305 308 326 325 324 334 316 324 314 311 266 254 260 270 274 272 268 266 262 253 234 228 234 243 244 234 220 210 209
348 343 338 337 327 321 320 314 304 302 297 309 314 315 312 310 309 306 301 289 275 228 266 276 270 260 258 252 251 248 237 233 236 239 236 226 218 213
344 339 336 331 319 314 310 304 301 296 294 304 307 312 313 314 308 296 293 291 294 257 246 266 270 265 255 248 247 247 242 238 236 235 232 228 223 218
335 332 329 324 315 316 305 302 302 298 290 288 299 307 302 305 306 295 288 289 287 273 241 246 258 262 255 246 242 242 240 240 237 235 233 227 219 216
331 329 328 327 322 319 310 308 305 298 292 287 291 294 296 299 295 293 290 281 280 280 275 267 254 246 245 241 237 237 238 238 238 236 234 227 219 215
329 329 337 340 339 325 316 311 306 297 292 289 290 292 291 292 291 293 291 290 281 271 273 269 258 256 245 234 231 232 233 232 233 234 233 227 222 219
329 327 325 320 323 297 300 301 299 294 295 291 287 286 291 293 294 285 287 289 285 272 272 275 267 264 258 253 234 225 229 229 227 227 224 221 219 219
325 327 328 326 320 320 299 263 266 258 265 279 283 287 290 294 291 283 278 281 284 288 282 275 265 261 257 251 225 224 229 230 228 225 221 219 218 219
319 322 323 326 336 328 313 306 303 297 286 276 279 285 289 291 285 282 284 282 279 271 265 271 269 266 262 253 222 220 226 231 230 226 222 220 220 220
319 323 324 325 346 327 311 305 303 302 286 265 278 279 282 281 277 274 270 268 271 269 257 261 267 268 264 255 234 215 223 228 230 229 226 222 220 220
318 314 329 331 331 323 313 306 302 306 306 295 277 267 267 262 249 254 260 263 269 272 262 254 264 266 266 255 246 233 230 229 226 227 226 223 219 226
314 313 322 335 318 312 305 302 305 305 298 294 291 287 282 278 270 262 259 259 263 265 268 260 265 262 263 268 259 249 246 244 234 232 227 220 216 222
306 308 318 324 309 299 297 303 301 294 288 288 288 288 287 285 283 282 276 266 264 268 271 267 264 263 264 265 266 256 249 249 246 242 235 218 218 221
302 311 306 298 295 288 281 283 286 285 286 286 288 290 292 294 293 287 281 276 273 269 266 262 259 259 259 262 264 262 258 253 249 247 240 232 231 229
301 299 283 275 275 282 286 283 285 290 291 288 290 292 293 292 288 286 283 280 276 274 268 260 255 253 255 259 261 259 256 253 247 246 244 243 238 234
307 297 295 297 297 297 296 296 295 293 288 286 288 289 290 288 286 288 284 278 274 276 273 268 265 260 259 260 259 255 254 255 251 249 244 244 245 240
296 290 291 294 296 298 299 299 297 295 293 289 288 289 288 287 287 285 283 278 275 273 271 266 266 270 268 263 249 255 254 253 251 247 248 246 247 244
282 286 291 294 295 296 296 296 295 295 295 291 287 287 288 287 285 285 281 279 278 277 272 261 254 255 262 267 263 237 249 252 247 247 246 245 249 245
283 288 291 293 293 293 292 293 293 293 292 290 288 286 285 285 284 282 281 279 277 277 277 266 253 250 255 268 275 275 250 250 246 244 243 248 258 253
290 290 290 291 291 290 290 291 291 289 288 287 286 284 284 284 284 283 284 282 276 275 272 270 269 258 262 271 270 266 260 245 253 255 246 242 250 245
291 290 290 290 292 291 290 289 288 285 284 283 285 285 282 282 282 282 283 282 279 277 277 274 274 264 252 253 260 267 266 259 257 257 255 250 250 241
293 293 292 292 291 291 289 288 288 286 283 283 284 284 282 281 280 279 278 278 277 277 279 275 271 269 260 253 258 263 263 261 259 257 261 255 248 243
Height
1548 1547 1546 1545 1545 1544 1543 1542 1542 1540 1540 1539 1538 1536 1535 1534 1533 1533 1533 1532 1532 1532 1531 1532 1532 1532 1532 1533 1533 1534 1534 1534 1535 1535 1535 1535 1536 1539
1548 1547 1546 1546 1544 1543 1542 1542 1541 1541 1539 1538 1537 1536 1534 1533 1532 1531 1531 1530 1530 1530 1529 1529 1529 1530 1530 1530 1531 1531 1532 1532 1532 1532 1532 1532 1534 1536
1548 1547 1546 1545 1544 1543 1542 1541 1540 1539 1538 1537 1536 1534 1533 1532 1531 1530 1529 1528 1528 1527 1526 1526 1526 1527 1527 1528 1528 1528 1529 1529 1529 1530 1530 1530 1531 1533
1548 1547 1546 1544 1543 1543 1541 1540 1539 1538 1537 1535 1534 1533 1532 1530 1529 1528 1527 1527 1525 1524 1524 1523 1523 1524 1524 1524 1525 1525 1525 1526 1526 1527 1527 1528 1528 1530
1548 1546 1545 1544 1543 1542 1540 1540 1538 1537 1535 1534 1532 1531 1530 1529 1527 1526 1525 1524 1523 1522 1521 1520 1520 1520 1520 1520 1521 1521 1521 1522 1522 1523 1523 1524 1525 1526
1546 1545 1544 1543 1542 1540 1539 1538 1537 1535 1534 1532 1531 1529 1528 1526 1525 1524 1523 1522 1520 1520 1519 1517 1517 1516 1516 1516 1516 1517 1517 1517 1518 1519 1519 1520 1520 1521
1545 1543 1542 1540 1539 1538 1537 1536 1534 1533 1532 1530 1529 1527 1526 1524 1523 1522 1520 1519 1518 1517 1516 1515 1514 1513 1512 1512 1512 1512 1513 1513 1513 1514 1514 1515 1516 1517
1543 1541 1540 1538 1537 1535 1534 1533 1532 1531 1529 1528 1527 1525 1524 1522 1520 1519 1518 1516 1515 1514 1513 1511 1511 1509 1509 1508 1507 1507 1508 1508 1508 1509 1510 1510 1511 1512
1541 1539 1538 1536 1534 1533 1531 1530 1528 1527 1526 1525 1524 1522 1521 1519 1518 1516 1514 1513 1512 1511 1509 1507 1507 1505 1505 1504 1503 1503 1503 1503 1503 1503 1504 1504 1505 1506
1539 1537 1535 1533 1532 1530 1528 1527 1526 1524 1522 1521 1519 1518 1516 1515 1514 1512 1510 1509 1507 1506 1505 1504 1502 1501 1500 1499 1498 1497 1497 1497 1498 1498 1498 1499 1499 1500
1536 1534 1533 1531 1528 1526 1525 1523 1521 1520 1518 1516 1514 1512 1511 1509 1508 1507 1506 1505 1503 1502 1501 1499 1498 1497 1495 1494 1493 1492 1492 1492 1492 1492 1493 1493 1494 1494
1533 1531 1529 1527 1525 1523 1522 1520 1518 1516 1514 1511 1509 1508 1506 1504 1503 1502 1501 1500 1498 1497 1496 1495 1493 1493 1491 1489 1488 1487 1486 1486 1486 1486 1486 1487 1488 1489
1531 1529 1526 1524 1522 1519 1517 1515 1513 1511 1509 1507 1505 1503 1501 1499 1498 1497 1495 1494 1493 1491 1491 1490 1488 1487 1487 1484 1483 1482 1481 1480 1480 1480 1480 1480 1481 1482
1527 1525 1523 1520 1517 1515 1513 1510 1508 1506 1504 1502 1500 1498 1496 1495 1493 1491 1489 1488 1486 1485 1484 1484 1483 1482 1481 1479 1478 1476 1476 1475 1475 1474 1474 1474 1475 1476
1522 1520 1517 1515 1512 1510 1508 1505 1503 1502 1500 1498 1496 1494 1492 1489 1487 1485 1483 1481 1479 1478 1477 1477 1476 1475 1475 1473 1472 1471 1470 1469 1469 1469 1468 1468 1468 1469
1518 1515 1512 1510 1507 1505 1503 1501 1499 1497 1495 1492 1490 1488 1486 1484 1481 1479 1477 1475 1473 1471 1470 1470 1469 1468 1467 1466 1465 1464 1464 1463 1462 1462 1462 1462 1462 1463
1513 1510 1508 1506 1503 1501 1499 1497 1494 1492 1489 1487 1485 1482 1480 1478 1476 1474 1471 1469 1467 1464 1463 1462 1462 1461 1460 1459 1458 1457 1457 1456 1456 1455 1455 1455 1455 1456
1508 1505 1503 1501 1499 1496 1494 1491 1489 1487 1484 1482 1479 1477 1475 1472 1470 1467 1465 1463 1460 1458 1457 1455 1455 1453 1452 1451 1451 1450 1449 1449 1449 1448 1448 1448 1447 1448
1503 1501 1498 1496 1494 1491 1489 1486 1483 1481 1479 1476 1474 1471 1469 1466 1464 1461 1459 1456 1454 1452 1450 1449 1448 1447 1446 1443 1443 1444 1443 1442 1441 1441 1441 1441 1440 1441
1498 1496 1493 1491 1488 1485 1483 1480 1478 1475 1472 1470 1467 1465 1463 1460 1458 1455 1453 1450 1448 1446 1444 1442 1442 1441 1440 1438 1436 1435 1435 1435 1435 1434 1434 1434 1434 1434
1493 1490 1487 1485 1482 1479 1477 1474 1471 1469 1466 1463 1461 1458 1456 1453 1451 1448 1446 1443 1441 1439 1437 1436 1435 1434 1433 1432 1430 1427 1428 1428 1428 1427 1427 1428 1427 1427
1486 1484 1481 1478 1476 1473 1470 1468 1465 1462 1459 1457 1454 1451 1449 1446 1444 1441 1439 1437 1434 1432 1430 1429 1428 1427 1426 1425 1423 1421 1421 1421 1420 1420 1421 1421 1420 1420
1480 1477 1475 1472 1469 1467 1464 1461 1458 1455 1453 1450 1447 1444 1442 1439 1436 1434 1431 1430 1427 1425 1424 1422 1421 1420 1419 1418 1417 1415 1414 1414 1414 1413 1413 1414 1414 1415